{"data":{"norad_id":44786,"intl_designator":"2019-077B","name":"KL-ALPHA B","alt_names":[],"object_type":"PAYLOAD","status":"ACTIVE","operator":null,"country":"GER","launch_date":"2019-11-17","launch_site_code":"JSC","launch_vehicle":null,"mission":null,"orbit_class":"UNKNOWN","rcs_meters":null,"size_class":null,"mass_kg":null,"dimensions":null,"purposes":[],"wikipedia_slug":null,"has_3d_model":false,"image_url":null,"decayed_at":null,"tle_current":{"epoch":"2026-09-20T04:04:17.495616Z","epoch_age_seconds":90194,"freshness":"FRESH","line1":"1 44786U 19077B   26263.16964694  .00000088  00000+0  10798-3 0  9990","line2":"2 44786  88.9184 209.6508 0024337 231.5615 128.3355 13.56009717338056","mean_motion":13.56009717,"eccentricity":0.0024337,"inclination_deg":88.9184,"raan_deg":209.6508,"arg_perigee_deg":231.5615,"mean_anomaly_deg":128.3355,"bstar":0.00010798,"rev_number":33805,"period_min":106.19392928731,"perigee_km":1032.1508134937,"apogee_km":1068.3076432737,"semimajor_km":7428.3662283837,"source":"CELESTRAK","updated_at":"2026-09-20T09:00:14.543292Z"}}}